Weather History for Zapata, TX

Change the Weather History Date:

Thursday, June 6, 2013

  Actual Average (KLRD) Record (KLRD)
Temperature  
Mean Temperature 84 °F 86 °F  
Max Temperature 97 °F 97 °F 107 °F (2011)
Min Temperature 72 °F 75 °F 60 °F (1920)
Degree Days  
Heating Degree Days 0 0  
Month to date heating degree days 0  
Since 1 June heating degree days 0  
Since 1 July heating degree days 926  
Cooling Degree Days 20 21  
Month to date cooling degree days 126  
Year to date cooling degree days 1269  
Since 1 June cooling degree days 126  
Growing Degree Days 34 (Base 50)    
Moisture  
Dew Point 65 °F    
Average Humidity 55    
Maximum Humidity 92    
Minimum Humidity 29    
Precipitation  
Precipitation 0.00 in 0.08 in 2.76 in (1952)
Month to date precipitation 0.42  
Year to date precipitation 7.29  
Sea Level Pressure  
Sea Level Pressure 29.78 in    
Wind  
Wind Speed 8 mph (ESE)    
Max Wind Speed 14 mph    
Max Gust Speed 18 mph    
Visibility 10 miles    
Events      
T = Trace of Precipitation, MM = Missing Value Source: NWS Daily Summary

Daily Weather History Graph

Daily Weather History Graph

Search for Another Location

Airport:

Trip Planner

Search our weather history database for the weather conditions in past years. The results will help you decide how hot, cold, wet, or windy it might be!

Date:

Astronomy

Jun. 06, 2013 Rise Set
Actual Time 6:42 AM CDT 8:29 PM CDT
Civil Twilight 6:16 AM CDT 8:55 PM CDT
Nautical Twilight 5:44 AM CDT 9:27 PM CDT
Astronomical Twilight 5:11 AM CDT 10:00 PM CDT
Moon 5:16 AM CDT (6/6) 6:59 PM CDT (6/6)
Length of Visible Light 14h 39m
Length of Day
13h 46m
Waning Crescent, 3% of the Moon is Illuminated
Jun 6
Waning Crescent
Jun 8
New
Jun 16
First Quarter
Jun 23
Full
Jun 29
Last Quarter

Hourly Weather History & Observations

Time (CDT) Temp. Heat Index Dew Point Humidity Pressure Visibility Wind Dir Wind Speed Gust Speed Precip Events Conditions
12:15 AM 80.6 °F 83.4 °F 68.2 °F 66% 29.79 in 10.0 mi ESE 12.7 mph - N/A   Clear
12:35 AM 79.9 °F - 68.0 °F 67% 29.79 in 10.0 mi SE 9.2 mph - N/A   Clear
12:55 AM 79.3 °F - 68.0 °F 68% 29.79 in 10.0 mi SE 8.1 mph - N/A   Clear
1:15 AM 78.8 °F - 67.8 °F 69% 29.79 in 10.0 mi SE 6.9 mph - N/A   Clear
1:35 AM 78.3 °F - 67.8 °F 70% 29.78 in 10.0 mi SE 8.1 mph - N/A   Clear
1:55 AM 77.9 °F - 68.0 °F 71% 29.78 in 10.0 mi SE 6.9 mph - N/A   Clear
2:15 AM 77.2 °F - 68.2 °F 74% 29.77 in 10.0 mi SE 6.9 mph - N/A   Clear
2:35 AM 77.4 °F - 68.2 °F 73% 29.77 in 10.0 mi SE 9.2 mph - N/A   Clear
2:55 AM 77.0 °F - 68.4 °F 75% 29.77 in 10.0 mi SE 6.9 mph - N/A   Clear
3:15 AM 76.6 °F - 68.5 °F 76% 29.76 in 10.0 mi SE 6.9 mph - N/A   Clear
3:35 AM 76.5 °F - 68.4 °F 76% 29.76 in 10.0 mi SE 6.9 mph - N/A   Clear
3:55 AM 76.1 °F - 68.5 °F 77% 29.76 in 10.0 mi SE 3.5 mph - N/A   Clear
4:15 AM 75.2 °F - 68.5 °F 80% 29.75 in 10.0 mi SE 3.5 mph - N/A   Clear
4:35 AM 74.5 °F - 68.7 °F 82% 29.75 in 10.0 mi SE 3.5 mph - N/A   Clear
4:55 AM 74.3 °F - 69.1 °F 84% 29.75 in 10.0 mi Calm Calm - N/A   Clear
5:15 AM 73.6 °F - 69.8 °F 88% 29.75 in 10.0 mi SE 3.5 mph - N/A   Clear
5:35 AM 73.2 °F - 69.8 °F 89% 29.76 in 10.0 mi ESE 3.5 mph - N/A   Clear
5:55 AM 72.5 °F - 69.8 °F 91% 29.75 in 10.0 mi ESE 4.6 mph - N/A   Clear
6:15 AM 72.9 °F - 70.2 °F 91% 29.76 in 10.0 mi ESE 4.6 mph - N/A   Clear
6:35 AM 72.9 °F - 70.2 °F 91% 29.75 in 10.0 mi ESE 4.6 mph - N/A   Clear
6:55 AM 72.9 °F - 70.5 °F 92% 29.76 in 10.0 mi ESE 4.6 mph - N/A   Clear
7:15 AM 73.2 °F - 70.7 °F 92% 29.76 in 10.0 mi SE 4.6 mph - N/A   Clear
7:35 AM 74.3 °F - 71.6 °F 91% 29.77 in 10.0 mi SE 4.6 mph - N/A   Clear
7:55 AM 76.3 °F - 71.4 °F 85% 29.78 in 10.0 mi ESE 6.9 mph - N/A   Clear
8:15 AM 77.9 °F - 70.9 °F 79% 29.78 in 10.0 mi SE 10.4 mph 16.1 mph N/A   Scattered Clouds
8:35 AM 79.2 °F - 70.7 °F 75% 29.79 in 10.0 mi SE 8.1 mph - N/A   Clear
8:55 AM 80.1 °F 83.2 °F 70.0 °F 71% 29.79 in 10.0 mi SE 9.2 mph - N/A   Scattered Clouds
9:15 AM 81.5 °F 84.8 °F 69.1 °F 66% 29.81 in 10.0 mi SE 9.2 mph - N/A   Clear
9:35 AM 82.4 °F 85.6 °F 68.5 °F 63% 29.82 in 10.0 mi SE 8.1 mph - N/A   Clear
9:55 AM 83.5 °F 86.4 °F 67.6 °F 59% 29.82 in 10.0 mi ESE 9.2 mph - N/A   Clear
10:15 AM 84.6 °F 87.4 °F 67.3 °F 56% 29.82 in 10.0 mi East 8.1 mph - N/A   Clear
10:35 AM 86.2 °F 89.1 °F 67.1 °F 53% 29.82 in 10.0 mi ESE 6.9 mph - N/A   Clear
10:55 AM 86.9 °F 88.9 °F 65.5 °F 49% 29.82 in 10.0 mi East 9.2 mph - N/A   Clear
11:15 AM 88.0 °F 89.0 °F 63.5 °F 44% 29.82 in 10.0 mi East 11.5 mph 17.3 mph N/A   Clear
11:35 AM 89.2 °F 90.2 °F 63.5 °F 42% 29.82 in 10.0 mi East 8.1 mph 17.3 mph N/A   Clear
11:55 AM 90.3 °F 90.8 °F 62.2 °F 39% 29.82 in 10.0 mi ESE 12.7 mph - N/A   Clear
12:15 PM 90.5 °F 91.4 °F 63.3 °F 40% 29.83 in 10.0 mi East 10.4 mph - N/A   Clear
12:35 PM 90.5 °F 92.2 °F 64.8 °F 42% 29.82 in 10.0 mi South 3.5 mph - N/A   Scattered Clouds
12:55 PM 92.1 °F 93.6 °F 63.7 °F 39% 29.83 in 10.0 mi East 10.4 mph - N/A   Scattered Clouds
1:15 PM 92.3 °F 92.7 °F 61.9 °F 36% 29.82 in 10.0 mi ENE 8.1 mph 17.3 mph N/A   Scattered Clouds
1:35 PM 93.2 °F 93.7 °F 61.7 °F 35% 29.82 in 10.0 mi East 11.5 mph 16.1 mph N/A   Clear
1:55 PM 93.4 °F 93.5 °F 61.5 °F 34% 29.81 in 10.0 mi ENE 9.2 mph 17.3 mph N/A   Clear
2:15 PM 93.6 °F 94.2 °F 62.2 °F 35% 29.80 in 10.0 mi ESE 8.1 mph 16.1 mph N/A   Scattered Clouds
2:35 PM 94.8 °F 95.3 °F 61.2 °F 33% 29.79 in 10.0 mi East 6.9 mph 10.4 mph N/A   Clear
2:55 PM 93.9 °F 94.0 °F 60.8 °F 33% 29.79 in 10.0 mi ESE 8.1 mph - N/A   Scattered Clouds
3:15 PM 93.4 °F 93.2 °F 60.1 °F 33% 29.79 in 10.0 mi ENE 5.8 mph - N/A   Mostly Cloudy
3:35 PM 95.9 °F 96.1 °F 60.4 °F 31% 29.78 in 10.0 mi ENE 6.9 mph - N/A   Mostly Cloudy
3:55 PM 95.9 °F 95.7 °F 59.9 °F 30% 29.77 in 10.0 mi North 3.5 mph - N/A   Scattered Clouds
4:15 PM 95.9 °F 96.1 °F 60.6 °F 31% 29.76 in 10.0 mi East 5.8 mph - N/A   Scattered Clouds
4:35 PM 96.1 °F 96.0 °F 59.5 °F 30% 29.76 in 10.0 mi ESE 8.1 mph - N/A   Scattered Clouds
4:55 PM 97.0 °F 96.9 °F 59.7 °F 29% 29.75 in 10.0 mi SSE 9.2 mph - N/A   Scattered Clouds
5:15 PM 96.8 °F 96.7 °F 59.9 °F 29% 29.74 in 10.0 mi ENE 6.9 mph - N/A   Scattered Clouds
5:35 PM 96.8 °F 96.7 °F 59.4 °F 29% 29.74 in 10.0 mi East 10.4 mph - N/A   Clear
5:55 PM 96.4 °F 96.1 °F 59.0 °F 29% 29.73 in 10.0 mi East 9.2 mph - N/A   Clear
6:15 PM 95.5 °F 94.8 °F 59.0 °F 29% 29.72 in 10.0 mi East 10.4 mph - N/A   Clear
6:35 PM 95.4 °F 94.9 °F 59.4 °F 30% 29.72 in 10.0 mi ESE 8.1 mph - N/A   Clear
6:55 PM 95.0 °F 94.4 °F 59.4 °F 30% 29.71 in 10.0 mi SE 9.2 mph - N/A   Clear
7:15 PM 94.5 °F 94.4 °F 60.1 °F 32% 29.71 in 10.0 mi ESE 6.9 mph - N/A   Clear
7:35 PM 94.1 °F 93.9 °F 59.7 °F 32% 29.71 in 10.0 mi SE 5.8 mph - N/A   Clear
7:55 PM 93.4 °F 92.8 °F 59.7 °F 32% 29.72 in 10.0 mi ESE 4.6 mph - N/A   Clear
8:15 PM 92.7 °F 92.1 °F 59.9 °F 33% 29.72 in 10.0 mi East 6.9 mph - N/A   Clear
8:35 PM 91.4 °F 91.0 °F 60.3 °F 35% 29.73 in 10.0 mi East 4.6 mph - N/A   Clear
8:55 PM 90.5 °F 90.4 °F 60.8 °F 37% 29.74 in 10.0 mi East 5.8 mph - N/A   Clear
9:15 PM 89.6 °F 89.5 °F 61.2 °F 38% 29.74 in 10.0 mi East 6.9 mph - N/A   Clear
9:35 PM 88.7 °F 89.1 °F 62.1 °F 41% 29.75 in 10.0 mi East 13.8 mph 18.4 mph N/A   Clear
9:55 PM 88.5 °F 90.8 °F 66.0 °F 47% 29.75 in 10.0 mi East 12.7 mph - N/A   Clear
10:15 PM 87.8 °F 90.7 °F 67.1 °F 50% 29.77 in 10.0 mi East 9.2 mph 17.3 mph N/A   Clear
10:35 PM 87.1 °F 89.9 °F 67.1 °F 51% 29.79 in 10.0 mi East 9.2 mph - N/A   Clear
10:55 PM 86.2 °F 89.1 °F 67.5 °F 53% 29.81 in 10.0 mi East 11.5 mph - N/A   Clear
11:15 PM 85.5 °F 88.8 °F 68.0 °F 56% 29.82 in 10.0 mi East 9.2 mph - N/A   Clear
11:35 PM 85.1 °F 88.2 °F 68.0 °F 56% 29.83 in 10.0 mi ESE 9.2 mph - N/A   Clear
11:55 PM 84.2 °F 87.6 °F 68.4 °F 59% 29.83 in 10.0 mi ESE 8.1 mph - N/A   Clear